QPF
0.00 0.00 0.00 0.00 0.00 0.00 0.00 0.00 0.00 0.00 0.00 0.00 0.00 0.00 0.00 0.00 0.00 0.00 0.00 0.00 0.00 0.00 0.00 0.00 0.00 0.00 0.00 0.00 0.00 0.00 0.00 0.00 0.00 0.00 0.00 0.00 0.00 0.00 0.00 0.00 0.00 0.00 0.00 0.00
0.00 0.00 0.00 0.00 0.00 0.00 0.00 0.00 0.00 0.00 0.00 0.00 0.00 0.00 0.00 0.00 0.00 0.00 0.00 0.00 0.00 0.00 0.00 0.00 0.00 0.00 0.00 0.00 0.00 0.00 0.00 0.00 0.00 0.00 0.00 0.00 0.00 0.00 0.00 0.00 0.00 0.00 0.00 0.00
0.00 0.00 0.00 0.00 0.00 0.00 0.00 0.00 0.00 0.00 0.00 0.00 0.00 0.00 0.00 0.00 0.00 0.00 0.00 0.00 0.00 0.00 0.00 0.00 0.00 0.00 0.00 0.00 0.00 0.00 0.00 0.00 0.00 0.00 0.00 0.00 0.00 0.00 0.00 0.00 0.00 0.00 0.00 0.00
0.00 0.00 0.00 0.00 0.00 0.00 0.00 0.00 0.00 0.00 0.00 0.00 0.00 0.00 0.00 0.00 0.00 0.00 0.00 0.00 0.00 0.00 0.00 0.00 0.00 0.00 0.00 0.00 0.00 0.00 0.00 0.00 0.00 0.00 0.00 0.00 0.00 0.00 0.00 0.00 0.00 0.00 0.00 0.00
0.00 0.00 0.00 0.00 0.00 0.00 0.00 0.00 0.00 0.00 0.00 0.00 0.00 0.00 0.00 0.00 0.00 0.00 0.00 0.00 0.00 0.00 0.00 0.00 0.00 0.00 0.00 0.00 0.00 0.00 0.00 0.00 0.00 0.00 0.00 0.00 0.00 0.00 0.00 0.00 0.00 0.00 0.00 0.00
0.00 0.00 0.00 0.00 0.00 0.00 0.00 0.00 0.00 0.00 0.00 0.00 0.00 0.00 0.00 0.00 0.00 0.00 0.00 0.00 0.00 0.00 0.00 0.00 0.00 0.00 0.00 0.00 0.00 0.00 0.00 0.00 0.00 0.00 0.00 0.00 0.00 0.00 0.00 0.00 0.00 0.00 0.00 0.00
0.00 0.00 0.00 0.00 0.00 0.00 0.00 0.00 0.00 0.00 0.00 0.00 0.00 0.00 0.00 0.00 0.00 0.00 0.00 0.00 0.00 0.00 0.00 0.00 0.00 0.00 0.00 0.00 0.00 0.00 0.00 0.00 0.00 0.00 0.00 0.00 0.00 0.00 0.00 0.00 0.00 0.00 0.00 0.00
0.00 0.00 0.00 0.00 0.00 0.00 0.00 0.00 0.00 0.00 0.00 0.00 0.00 0.00 0.00 0.00 0.00 0.00 0.00 0.00 0.00 0.00 0.00 0.00 0.00 0.00 0.00 0.00 0.00 0.00 0.00 0.00 0.00 0.00 0.00 0.00 0.00 0.00 0.00 0.00 0.00 0.00 0.00 0.00
0.00 0.00 0.00 0.00 0.00 0.00 0.00 0.00 0.00 0.00 0.00 0.00 0.00 0.00 0.00 0.00 0.00 0.00 0.00 0.00 0.00 0.00 0.00 0.00 0.00 0.00 0.00 0.00 0.00 0.00 0.00 0.00 0.00 0.00 0.00 0.00 0.00 0.00 0.00 0.00 0.00 0.00 0.00 0.00
0.00 0.00 0.00 0.00 0.00 0.00 0.00 0.00 0.00 0.00 0.00 0.00 0.00 0.00 0.00 0.00 0.00 0.00 0.00 0.00 0.00 0.00 0.00 0.00 0.00 0.00 0.00 0.00 0.00 0.00 0.00 0.00 0.00 0.00 0.00 0.00 0.00 0.00 0.00 0.00 0.00 0.00 0.00 0.00
0.00 0.00 0.00 0.00 0.00 0.00 0.00 0.00 0.00 0.00 0.00 0.00 0.00 0.00 0.00 0.00 0.00 0.00 0.00 0.00 0.00 0.00 0.00 0.00 0.00 0.00 0.00 0.00 0.00 0.00 0.00 0.00 0.00 0.00 0.00 0.00 0.00 0.00 0.00 0.00 0.00 0.00 0.00 0.00
0.00 0.00 0.00 0.00 0.00 0.00 0.00 0.00 0.00 0.00 0.00 0.00 0.00 0.00 0.00 0.00 0.00 0.00 0.00 0.00 0.00 0.00 0.00 0.00 0.00 0.00 0.00 0.00 0.00 0.00 0.00 0.00 0.00 0.00 0.00 0.00 0.00 0.00 0.00 0.00 0.00 0.00 0.00 0.00
0.00 0.00 0.00 0.00 0.00 0.00 0.00 0.00 0.00 0.02 0.00 0.00 0.00 0.00 0.00 0.00 0.00 0.00 0.00 0.00 0.00 0.00 0.00 0.00 0.00 0.00 0.00 0.00 0.00 0.00 0.00 0.00 0.00 0.00 0.00 0.00 0.00 0.00 0.00 0.00 0.00 0.00 0.00 0.00
0.00 0.00 0.00 0.00 0.00 0.00 0.00 0.00 0.00 0.02 0.01 0.00 0.00 0.00 0.00 0.00 0.00 0.00 0.00 0.00 0.00 0.00 0.00 0.00 0.00 0.00 0.00 0.00 0.00 0.00 0.00 0.00 0.00 0.00 0.00 0.00 0.00 0.00 0.00 0.00 0.00 0.00 0.00 0.00
0.01 0.00 0.00 0.00 0.00 0.00 0.00 0.00 0.01 0.03 0.00 0.00 0.00 0.00 0.00 0.00 0.00 0.00 0.00 0.00 0.00 0.00 0.00 0.00 0.00 0.00 0.00 0.00 0.00 0.00 0.00 0.00 0.00 0.00 0.00 0.00 0.00 0.00 0.00 0.00 0.00 0.00 0.00 0.00
0.00 0.00 0.00 0.00 0.00 0.00 0.00 0.00 0.00 0.00 0.00 0.00 0.00 0.00 0.00 0.00 0.00 0.00 0.00 0.00 0.00 0.00 0.00 0.00 0.00 0.00 0.00 0.00 0.00 0.00 0.00 0.00 0.00 0.00 0.00 0.00 0.00 0.00 0.00 0.00 0.00 0.00 0.00 0.00
0.00 0.00 0.00 0.00 0.00 0.00 0.00 0.00 0.00 0.00 0.00 0.00 0.00 0.00 0.00 0.00 0.00 0.00 0.00 0.00 0.00 0.00 0.00 0.00 0.00 0.00 0.00 0.00 0.00 0.00 0.00 0.00 0.00 0.00 0.00 0.00 0.00 0.00 0.00 0.00 0.00 0.00 0.00 0.00
0.00 0.00 0.00 0.00 0.00 0.00 0.00 0.00 0.00 0.00 0.00 0.00 0.00 0.00 0.00 0.00 0.00 0.00 0.00 0.00 0.00 0.00 0.00 0.00 0.00 0.00 0.00 0.00 0.00 0.00 0.00 0.00 0.00 0.00 0.00 0.00 0.00 0.00 0.00 0.00 0.00 0.00 0.00 0.00
0.00 0.00 0.00 0.00 0.00 0.00 0.00 0.00 0.00 0.00 0.00 0.00 0.00 0.00 0.00 0.00 0.00 0.00 0.00 0.00 0.00 0.00 0.00 0.00 0.00 0.00 0.00 0.00 0.00 0.00 0.00 0.00 0.00 0.00 0.00 0.00 0.00 0.00 0.00 0.00 0.00 0.00 0.00 0.00
0.00 0.00 0.00 0.00 0.00 0.00 0.00 0.00 0.00 0.00 0.00 0.00 0.00 0.00 0.00 0.00 0.00 0.00 0.00 0.00 0.00 0.00 0.00 0.00 0.00 0.00 0.00 0.00 0.00 0.00 0.00 0.00 0.00 0.00 0.00 0.00 0.00 0.00 0.00 0.00 0.00 0.00 0.00 0.00
0.00 0.00 0.00 0.00 0.00 0.00 0.00 0.00 0.00 0.00 0.00 0.00 0.00 0.00 0.00 0.00 0.00 0.00 0.00 0.00 0.00 0.00 0.00 0.00 0.00 0.00 0.00 0.00 0.00 0.00 0.00 0.00 0.00 0.00 0.00 0.00 0.00 0.00 0.00 0.00 0.00 0.00 0.00 0.00
0.00 0.00 0.00 0.00 0.00 0.00 0.00 0.00 0.00 0.00 0.00 0.00 0.00 0.00 0.00 0.00 0.00 0.00 0.00 0.00 0.00 0.00 0.00 0.00 0.00 0.00 0.00 0.00 0.00 0.00 0.00 0.00 0.00 0.00 0.00 0.00 0.00 0.00 0.00 0.00 0.00 0.00 0.00 0.00
0.00 0.00 0.00 0.00 0.00 0.00 0.00 0.00 0.00 0.00 0.00 0.00 0.00 0.00 0.00 0.00 0.00 0.00 0.00 0.00 0.00 0.00 0.00 0.00 0.00 0.00 0.00 0.00 0.00 0.00 0.00 0.00 0.00 0.00 0.00 0.00 0.00 0.00 0.00 0.00 0.00 0.00 0.00 0.00
0.00 0.00 0.00 0.00 0.00 0.00 0.00 0.00 0.00 0.00 0.00 0.00 0.00 0.00 0.00 0.00 0.00 0.00 0.00 0.00 0.00 0.00 0.00 0.00 0.00 0.00 0.00 0.00 0.00 0.00 0.00 0.00 0.00 0.00 0.00 0.00 0.00 0.00 0.00 0.00 0.00 0.00 0.00 0.00
0.00 0.00 0.00 0.00 0.00 0.00 0.00 0.00 0.00 0.00 0.00 0.00 0.00 0.00 0.00 0.00 0.00 0.00 0.00 0.00 0.00 0.00 0.00 0.00 0.00 0.00 0.00 0.00 0.00 0.00 0.00 0.00 0.00 0.00 0.00 0.00 0.00 0.00 0.00 0.00 0.00 0.00 0.00 0.00
0.00 0.00 0.00 0.00 0.00 0.00 0.00 0.00 0.00 0.00 0.00 0.00 0.00 0.00 0.00 0.00 0.00 0.00 0.00 0.00 0.00 0.00 0.00 0.00 0.00 0.00 0.00 0.00 0.00 0.00 0.00 0.00 0.00 0.00 0.00 0.00 0.00 0.00 0.00 0.00 0.00 0.00 0.00 0.00
MSLP
1017.83 1018.53 1018.07 1018.35 1018.44 1018.33 1018.56 1019.14 1019.30 1019.29 1019.12 1019.28 1019.34 1019.31 1018.69 1018.68 1018.83 1019.01 1019.01 1018.73 1018.71 1018.50 1017.75 1017.86 1017.93 1018.40 1018.82 1019.18 1019.36 1019.47 1019.60 1019.75 1019.91 1020.16 1020.31 1020.36 1020.47 1020.41 1020.44 1020.39 1020.14 1019.85 1019.81 1019.81
1018.61 1018.33 1018.59 1018.59 1018.70 1018.80 1019.13 1019.67 1020.00 1019.89 1019.96 1020.14 1020.20 1019.87 1019.30 1019.03 1018.96 1018.60 1018.54 1018.56 1018.30 1018.12 1017.74 1017.72 1018.02 1018.34 1018.57 1018.79 1019.21 1019.55 1019.64 1019.77 1019.80 1019.98 1020.18 1020.27 1020.46 1020.61 1020.66 1020.81 1020.74 1020.54 1020.41 1020.39
1018.54 1018.62 1018.50 1018.90 1018.92 1019.28 1019.66 1020.04 1020.43 1020.45 1020.69 1020.93 1021.06 1020.33 1019.71 1018.49 1018.37 1018.17 1017.97 1017.65 1017.53 1017.41 1017.43 1017.45 1017.94 1018.08 1018.36 1018.79 1019.12 1019.42 1019.56 1019.75 1019.84 1019.95 1020.17 1020.40 1020.56 1020.78 1020.99 1021.14 1021.30 1021.37 1021.20 1021.23
1018.81 1018.66 1018.83 1019.05 1019.19 1019.51 1020.15 1020.23 1020.50 1021.07 1021.78 1022.32 1022.19 1021.23 1020.17 1019.14 1018.44 1018.16 1017.55 1017.25 1016.87 1016.71 1016.89 1017.09 1017.48 1017.99 1018.38 1018.55 1019.10 1019.40 1019.59 1019.72 1019.85 1019.97 1019.97 1020.10 1020.51 1021.01 1021.32 1021.54 1021.93 1022.03 1021.92 1021.89
1018.71 1018.60 1018.82 1019.08 1019.01 1019.20 1019.96 1020.17 1020.81 1021.61 1022.56 1023.13 1023.27 1023.34 1020.00 1019.48 1018.82 1017.66 1016.81 1016.54 1016.26 1016.28 1016.74 1016.82 1016.96 1017.01 1017.69 1018.43 1019.00 1019.45 1019.77 1019.91 1020.01 1020.00 1019.77 1019.86 1020.52 1020.99 1021.46 1021.88 1022.20 1022.39 1022.47 1022.40
1018.64 1018.42 1018.62 1018.72 1018.94 1019.16 1019.88 1020.73 1021.84 1022.80 1023.65 1023.97 1023.14 1023.45 1019.86 1019.29 1017.92 1017.13 1016.23 1015.84 1016.03 1016.26 1016.34 1016.49 1016.63 1017.07 1017.59 1018.34 1018.95 1019.44 1019.77 1020.06 1020.22 1020.10 1019.93 1019.99 1020.44 1021.13 1021.71 1022.18 1022.50 1022.74 1022.85 1022.87
1018.78 1018.64 1018.46 1018.54 1019.06 1019.59 1019.67 1020.78 1022.85 1024.28 1024.86 1023.89 1023.24 1023.20 1018.68 1018.07 1016.95 1016.48 1015.96 1015.65 1015.95 1016.12 1016.13 1016.36 1016.85 1017.26 1017.87 1018.53 1018.90 1019.24 1019.64 1020.07 1020.24 1020.25 1020.43 1020.55 1020.71 1021.03 1021.49 1021.99 1022.43 1022.77 1023.03 1023.24
1018.54 1018.90 1018.23 1018.18 1018.36 1018.90 1019.58 1020.00 1021.47 1023.04 1024.33 1024.03 1023.64 1021.76 1018.15 1016.91 1016.08 1015.71 1015.76 1015.78 1015.67 1015.87 1016.00 1016.14 1016.64 1017.34 1017.86 1018.48 1019.16 1019.56 1019.96 1020.24 1020.36 1020.40 1020.73 1020.99 1021.12 1021.34 1021.71 1022.09 1022.52 1022.88 1023.16 1023.40
1018.18 1018.13 1017.73 1017.70 1017.82 1018.26 1019.45 1019.90 1020.61 1022.33 1024.36 1024.31 1022.55 1020.51 1018.14 1016.52 1015.93 1015.44 1015.46 1015.56 1015.61 1015.74 1015.80 1016.28 1016.90 1017.38 1018.01 1018.61 1018.93 1019.50 1019.95 1020.28 1020.51 1020.64 1020.90 1021.31 1021.51 1021.60 1021.89 1022.30 1022.69 1023.09 1023.39 1023.51
1017.93 1018.21 1018.08 1018.00 1017.98 1018.28 1018.19 1019.15 1020.58 1021.85 1023.53 1023.66 1021.60 1020.23 1017.82 1016.41 1015.76 1015.35 1015.38 1015.64 1015.47 1015.59 1015.88 1016.37 1017.09 1017.71 1018.26 1018.64 1018.98 1019.40 1019.70 1020.07 1020.53 1020.87 1021.17 1021.53 1021.83 1021.97 1022.19 1022.51 1022.91 1023.29 1023.60 1023.77
1018.21 1018.32 1018.92 1018.34 1017.92 1017.72 1018.41 1018.71 1019.49 1020.46 1021.60 1021.70 1021.13 1018.61 1016.46 1015.95 1015.59 1015.50 1015.30 1015.54 1015.59 1015.63 1015.91 1016.45 1017.03 1017.62 1018.14 1018.63 1019.08 1019.50 1019.92 1020.29 1020.71 1020.91 1021.21 1021.61 1021.99 1022.22 1022.42 1022.69 1023.02 1023.32 1023.64 1023.89
1018.56 1018.88 1018.87 1018.29 1017.85 1017.85 1017.58 1017.72 1018.63 1019.50 1020.59 1020.62 1019.86 1016.59 1015.39 1015.32 1015.17 1015.08 1015.01 1015.39 1015.39 1015.46 1015.69 1016.32 1016.85 1017.50 1018.10 1018.61 1018.99 1019.29 1019.60 1020.00 1020.45 1020.94 1021.43 1021.86 1022.23 1022.52 1022.74 1022.97 1023.26 1023.53 1023.80 1024.02
1018.43 1018.54 1018.79 1018.88 1018.64 1018.33 1017.92 1017.79 1018.02 1018.60 1019.13 1018.98 1018.89 1015.63 1015.03 1014.95 1015.10 1015.01 1015.00 1015.07 1015.28 1015.60 1015.70 1016.03 1016.60 1017.08 1017.41 1017.93 1018.42 1018.85 1019.32 1019.75 1020.18 1020.67 1021.19 1021.76 1022.26 1022.64 1022.89 1023.17 1023.47 1023.71 1023.96 1024.21
1019.06 1018.51 1018.13 1017.70 1017.28 1017.19 1017.89 1017.49 1017.64 1018.08 1018.37 1017.03 1016.61 1014.83 1015.09 1014.91 1015.09 1015.25 1015.32 1015.23 1015.42 1015.47 1015.36 1015.67 1016.01 1016.55 1017.01 1017.50 1017.95 1018.33 1018.71 1019.20 1019.66 1020.31 1020.88 1021.44 1021.92 1022.38 1022.74 1023.12 1023.51 1023.93 1024.13 1024.41
1019.66 1019.12 1018.69 1017.99 1017.90 1017.48 1017.11 1017.10 1017.22 1017.40 1016.40 1016.55 1014.80 1014.78 1013.70 1014.45 1014.72 1014.83 1014.96 1015.53 1015.39 1014.85 1014.77 1014.81 1014.99 1015.68 1016.21 1016.82 1017.27 1017.55 1017.88 1018.41 1019.00 1019.69 1020.27 1020.76 1021.48 1022.11 1022.63 1023.07 1023.39 1023.69 1024.09 1024.39
1020.21 1020.02 1019.57 1018.68 1018.28 1018.03 1017.69 1017.21 1016.62 1015.93 1015.60 1015.82 1014.11 1013.58 1013.10 1013.36 1013.84 1014.24 1014.58 1014.75 1014.59 1014.22 1014.12 1014.00 1014.38 1014.78 1015.34 1015.71 1016.05 1016.63 1017.11 1017.63 1018.35 1019.03 1019.56 1020.24 1020.97 1021.62 1022.17 1022.69 1023.19 1023.59 1024.00 1024.37
1021.06 1020.20 1020.39 1020.00 1019.04 1018.71 1017.90 1016.15 1015.21 1015.08 1014.34 1013.92 1013.81 1011.44 1012.79 1012.25 1012.77 1012.55 1013.31 1013.87 1013.73 1013.28 1013.32 1013.51 1013.71 1013.79 1013.99 1014.44 1015.00 1015.66 1015.98 1016.89 1017.70 1018.33 1018.95 1019.57 1020.32 1021.07 1021.75 1022.34 1022.86 1023.29 1023.77 1024.25
1021.74 1021.80 1021.22 1020.59 1019.93 1018.82 1016.28 1015.10 1014.76 1014.55 1013.81 1013.30 1012.96 1011.84 1010.96 1010.68 1011.41 1012.01 1012.30 1012.27 1012.34 1012.71 1012.55 1012.67 1012.93 1013.02 1013.17 1013.49 1014.11 1014.64 1015.32 1016.04 1016.82 1017.58 1018.38 1019.12 1019.79 1020.43 1021.11 1021.85 1022.48 1023.12 1023.61 1024.08
1022.14 1022.29 1021.43 1021.03 1020.20 1018.01 1016.19 1014.32 1014.39 1014.16 1012.89 1012.39 1012.27 1011.25 1010.67 1010.60 1011.57 1011.13 1010.71 1011.00 1011.32 1011.41 1011.55 1011.77 1011.98 1012.42 1012.87 1013.34 1013.75 1014.40 1015.21 1015.78 1016.47 1017.02 1017.55 1018.22 1018.97 1019.86 1020.65 1021.39 1021.98 1022.64 1023.24 1023.66
1021.42 1021.41 1021.59 1021.41 1020.19 1018.24 1015.15 1013.66 1013.00 1013.24 1013.00 1011.26 1011.28 1011.11 1010.57 1011.64 1012.07 1010.21 1009.36 1010.51 1010.78 1010.88 1010.97 1011.41 1012.04 1012.52 1012.93 1013.27 1013.79 1014.53 1015.21 1015.83 1016.31 1016.67 1017.33 1018.03 1018.73 1019.50 1020.18 1020.78 1021.42 1021.98 1022.58 1023.13
1021.78 1021.78 1021.17 1020.77 1019.86 1017.84 1014.56 1013.72 1013.55 1013.42 1011.79 1010.98 1010.76 1010.49 1010.47 1010.95 1010.41 1009.17 1009.95 1010.28 1010.46 1010.77 1011.12 1011.66 1012.28 1012.67 1012.98 1013.43 1013.98 1014.69 1015.25 1015.52 1015.92 1016.54 1017.16 1017.86 1018.28 1019.02 1019.72 1020.38 1020.95 1021.55 1022.15 1022.73
1021.50 1021.40 1020.79 1020.10 1019.05 1016.83 1014.09 1014.10 1014.05 1013.11 1011.67 1011.30 1011.04 1010.78 1010.73 1010.57 1010.35 1010.34 1009.99 1010.59 1010.89 1011.29 1011.72 1012.05 1012.58 1012.98 1013.46 1013.73 1014.18 1014.77 1015.27 1015.59 1016.10 1016.64 1017.27 1017.84 1018.37 1018.92 1019.56 1020.42 1021.29 1021.89 1022.35 1022.88
1020.56 1019.64 1019.34 1018.74 1016.64 1014.44 1013.87 1013.67 1013.01 1013.24 1013.02 1012.59 1011.80 1011.09 1010.89 1010.84 1010.88 1010.78 1010.50 1010.55 1011.04 1011.32 1011.82 1012.43 1012.95 1013.49 1013.83 1013.97 1014.20 1014.72 1015.31 1015.87 1016.52 1017.09 1017.53 1018.18 1018.75 1019.05 1019.69 1020.16 1020.80 1021.51 1022.20 1022.66
1019.57 1018.89 1018.58 1017.83 1015.27 1014.32 1013.57 1012.88 1012.65 1012.64 1012.12 1012.03 1012.35 1012.21 1011.73 1011.75 1010.97 1010.72 1010.70 1010.73 1011.30 1011.68 1012.08 1012.73 1013.28 1013.78 1014.11 1014.14 1014.20 1014.35 1015.08 1015.54 1016.18 1017.01 1017.65 1018.17 1018.66 1019.27 1019.72 1020.13 1020.54 1021.30 1021.74 1022.18
1019.05 1018.46 1017.57 1016.49 1015.06 1014.36 1013.36 1012.73 1012.69 1012.40 1012.46 1012.11 1011.90 1012.16 1011.95 1012.11 1011.28 1011.51 1011.70 1011.52 1011.54 1011.86 1012.39 1013.03 1013.48 1013.92 1014.29 1014.64 1014.81 1014.95 1015.23 1015.62 1016.47 1017.03 1017.74 1018.28 1018.96 1019.48 1019.92 1020.54 1020.60 1021.05 1021.26 1021.65
1017.80 1016.77 1016.97 1015.43 1014.14 1014.13 1013.46 1012.98 1012.99 1013.27 1013.19 1012.76 1012.54 1012.28 1012.10 1012.24 1012.17 1012.34 1012.23 1012.17 1012.00 1012.31 1012.47 1013.02 1013.46 1014.28 1014.93 1015.48 1015.51 1015.79 1015.41 1015.36 1016.38 1017.01 1017.62 1018.19 1018.91 1019.45 1020.09 1020.50 1021.29 1021.28 1021.61 1021.74
Thickness
5577 5574 5586 5594 5601 5610 5608 5606 5607 5609 5619 5619 5615 5618 5636 5641 5645 5646 5650 5655 5657 5663 5674 5674 5676 5675 5674 5672 5670 5670 5671 5671 5670 5668 5670 5670 5670 5669 5669 5669 5670 5671 5670 5669
5563 5571 5582 5587 5592 5596 5596 5593 5592 5601 5603 5606 5605 5610 5623 5632 5636 5646 5649 5648 5653 5659 5667 5669 5666 5665 5666 5667 5665 5662 5663 5661 5662 5662 5661 5662 5661 5660 5660 5658 5658 5659 5659 5658
5557 5568 5575 5579 5580 5581 5581 5580 5580 5591 5590 5591 5590 5599 5614 5637 5635 5639 5644 5652 5655 5660 5661 5661 5656 5657 5658 5657 5655 5654 5653 5653 5651 5653 5652 5651 5650 5649 5648 5647 5645 5644 5644 5643
5548 5559 5562 5564 5567 5571 5564 5573 5576 5575 5573 5565 5578 5555 5597 5618 5628 5633 5642 5646 5654 5656 5651 5654 5653 5650 5647 5648 5645 5643 5642 5642 5643 5641 5642 5644 5642 5639 5635 5633 5630 5629 5629 5628
5543 5549 5553 5555 5563 5570 5563 5567 5566 5564 5555 5557 5557 5550 5581 5604 5617 5634 5640 5641 5645 5646 5643 5646 5647 5652 5644 5637 5633 5630 5628 5628 5629 5629 5631 5633 5630 5626 5622 5619 5617 5615 5614 5613
5535 5545 5548 5552 5556 5561 5553 5551 5547 5535 5532 5512 5547 5550 5572 5599 5617 5630 5637 5639 5638 5637 5635 5636 5639 5634 5632 5627 5623 5619 5617 5615 5614 5617 5620 5620 5618 5613 5608 5605 5603 5600 5599 5598
5526 5533 5543 5547 5544 5546 5549 5544 5492 5490 5491 5515 5535 5537 5606 5603 5616 5620 5629 5631 5631 5629 5630 5625 5623 5620 5617 5613 5611 5610 5608 5605 5604 5604 5603 5604 5604 5602 5598 5594 5590 5587 5583 5581
5519 5518 5534 5543 5546 5542 5540 5544 5527 5525 5516 5521 5521 5538 5584 5595 5603 5612 5614 5616 5617 5618 5619 5619 5614 5608 5606 5603 5597 5596 5593 5591 5591 5592 5589 5588 5588 5586 5583 5580 5575 5571 5568 5565
5509 5520 5531 5537 5542 5543 5531 5529 5539 5516 5454 5479 5517 5538 5569 5588 5595 5600 5604 5608 5610 5609 5609 5605 5600 5595 5592 5589 5587 5583 5580 5579 5578 5578 5577 5573 5572 5572 5569 5565 5560 5556 5552 5549
5515 5514 5513 5523 5531 5530 5533 5533 5514 5477 5471 5470 5524 5532 5564 5590 5594 5594 5594 5596 5598 5599 5597 5590 5585 5582 5578 5576 5574 5572 5572 5569 5566 5564 5562 5560 5558 5556 5553 5550 5545 5541 5537 5533
5504 5507 5498 5511 5515 5526 5523 5521 5525 5519 5498 5492 5484 5538 5554 5572 5577 5580 5580 5579 5584 5585 5581 5577 5573 5569 5568 5565 5561 5559 5557 5556 5553 5551 5549 5545 5541 5538 5536 5534 5530 5526 5521 5517
5493 5482 5483 5501 5509 5505 5526 5528 5523 5515 5495 5491 5505 5547 5570 5566 5569 5570 5572 5567 5569 5571 5569 5564 5561 5558 5555 5551 5548 5548 5547 5545 5541 5536 5532 5529 5525 5522 5520 5517 5513 5509 5505 5501
5483 5475 5478 5478 5491 5490 5499 5513 5516 5510 5497 5504 5494 5548 5559 5560 5557 5559 5563 5561 5556 5555 5555 5552 5549 5548 5547 5544 5540 5537 5535 5531 5528 5524 5519 5514 5510 5506 5503 5500 5496 5492 5488 5483
5461 5469 5485 5499 5507 5500 5493 5499 5508 5507 5499 5523 5516 5549 5543 5544 5547 5543 5542 5541 5540 5540 5545 5543 5541 5540 5539 5537 5533 5529 5525 5521 5519 5514 5509 5504 5498 5493 5489 5485 5481 5475 5471 5466
5452 5465 5464 5485 5483 5493 5492 5496 5497 5496 5515 5500 5537 5526 5555 5544 5537 5533 5530 5521 5521 5531 5535 5538 5539 5536 5533 5529 5526 5523 5521 5516 5512 5507 5501 5495 5487 5480 5475 5469 5465 5461 5456 5451
5435 5446 5449 5470 5470 5467 5473 5475 5490 5501 5507 5499 5525 5524 5554 5547 5528 5521 5519 5512 5518 5525 5531 5533 5533 5531 5525 5523 5523 5518 5515 5509 5502 5499 5493 5484 5478 5471 5465 5459 5452 5447 5441 5436
5423 5429 5430 5431 5447 5450 5451 5480 5498 5500 5508 5512 5498 5542 5536 5538 5527 5535 5523 5512 5518 5529 5523 5524 5525 5525 5523 5518 5516 5513 5511 5502 5495 5491 5484 5478 5471 5464 5456 5448 5442 5435 5428 5422
5397 5403 5412 5397 5422 5425 5472 5483 5487 5489 5501 5506 5503 5522 5539 5544 5536 5519 5514 5520 5521 5510 5517 5518 5515 5516 5516 5514 5509 5506 5501 5494 5488 5483 5476 5468 5461 5455 5448 5439 5431 5421 5414 5407
5399 5396 5385 5387 5398 5442 5460 5490 5481 5463 5486 5502 5500 5516 5525 5528 5504 5509 5523 5522 5519 5516 5514 5513 5512 5510 5507 5503 5500 5494 5486 5480 5476 5472 5466 5459 5451 5443 5433 5426 5419 5410 5402 5395
5401 5403 5398 5342 5385 5369 5470 5493 5479 5470 5454 5513 5503 5501 5512 5492 5472 5514 5534 5504 5501 5500 5501 5501 5496 5494 5492 5490 5484 5478 5472 5466 5462 5458 5451 5443 5435 5427 5420 5413 5406 5399 5390 5382
5387 5384 5390 5391 5393 5395 5466 5471 5465 5446 5486 5493 5487 5492 5496 5484 5498 5518 5500 5499 5493 5490 5488 5482 5479 5481 5480 5473 5468 5464 5458 5455 5451 5443 5437 5429 5423 5413 5405 5397 5390 5382 5374 5365
5365 5338 5358 5364 5387 5396 5455 5448 5445 5458 5465 5470 5475 5473 5473 5475 5478 5479 5483 5479 5478 5476 5470 5466 5463 5462 5457 5454 5452 5449 5444 5438 5432 5426 5419 5411 5403 5396 5387 5376 5366 5358 5351 5342
5366 5382 5373 5380 5393 5426 5428 5434 5438 5428 5429 5440 5452 5458 5458 5457 5461 5464 5469 5466 5463 5461 5456 5448 5446 5443 5440 5438 5438 5434 5426 5419 5411 5406 5398 5391 5384 5378 5368 5360 5351 5341 5331 5323
5381 5381 5379 5377 5410 5412 5417 5417 5420 5424 5427 5435 5426 5425 5435 5436 5450 5454 5452 5454 5449 5443 5439 5429 5425 5424 5422 5420 5423 5421 5411 5405 5398 5389 5381 5374 5367 5357 5350 5343 5335 5324 5315 5307
5377 5376 5365 5376 5399 5394 5406 5407 5406 5407 5406 5410 5410 5409 5417 5412 5431 5429 5430 5431 5431 5426 5416 5409 5410 5409 5406 5401 5399 5396 5393 5387 5377 5370 5362 5355 5344 5337 5328 5319 5313 5304 5298 5292
5371 5382 5374 5394 5409 5399 5408 5403 5398 5393 5388 5394 5390 5400 5402 5402 5406 5404 5408 5406 5405 5404 5398 5396 5394 5388 5380 5375 5374 5370 5371 5370 5360 5352 5344 5336 5325 5318 5308 5301 5289 5287 5280 5276